Alamosa, CO

8:51 AM MDT on August 23, 2017 (GMT -0600)
San Luis Valley Regional / Bergman Field

Weather History for KALS - August, 2014

Change the Weather History Date:

Saturday, August 9, 2014

  Actual Average Record
Temperature  
Mean Temperature 62 °F 64 °F  
Max Temperature 84 °F 80 °F 89 °F (2000)
Min Temperature 40 °F 47 °F 31 °F (2009)
Degree Days  
Heating Degree Days 3 2  
Month to date heating degree days 25 15  
Since 1 June heating degree days 173 228  
Since 1 July heating degree days 47 60  
Cooling Degree Days 0 1  
Month to date cooling degree days 0 9  
Year to date cooling degree days 57 47  
Since 1 June cooling degree days 57 47  
Growing Degree Days 12 (Base 50)    
Moisture  
Dew Point 35 °F    
Average Humidity 49    
Maximum Humidity 85    
Minimum Humidity 12    
Precipitation  
Precipitation 0.00 in 0.04 in 0.56 in (1993)
Month to date precipitation T 0.36  
Year to date precipitation 3.35 4.04  
Snow  
Snow 0.00 in 0.00 in 0.00 in (2002)
Month to date snowfall 0.0 0.0  
Since 1 June snowfall 0.0 0.0  
Since 1 July snowfall 0.0 0.0  
Snow Depth 0.00 in    
Sea Level Pressure  
Sea Level Pressure 30.07 in    
Wind  
Wind Speed 7 mph (SE)    
Max Wind Speed 28 mph    
Max Gust Speed 37 mph    
Visibility 10 miles    
Events      
T = Trace of Precipitation, MM = Missing Value Source: NWS Daily Summary

Daily Weather History Graph

Daily Weather History Graph

Search for Another Location

Airport or City:

Trip Planner

Search our weather history database for the weather conditions in past years. The results will help you decide how hot, cold, wet, or windy it might be!

Date:

Astronomy

Aug. 09, 2014 Rise Set
Actual Time 6:14 AM MDT 8:02 PM MDT
Civil Twilight 5:46 AM MDT 8:30 PM MDT
Nautical Twilight 5:11 AM MDT 9:05 PM MDT
Astronomical Twilight 4:35 AM MDT 9:41 PM MDT
Moon 7:07 PM MDT (8/9) 4:58 AM MDT (8/9)
Length of Visible Light 14h 44m
Length of Day
13h 48m
Waxing Gibbous, 98% of the Moon is Illuminated
Aug 9
Waxing Gibbous
Aug 10
Full
Aug 17
Last Quarter
Aug 25
New
Sep 2
First Quarter

Hourly Weather History & Observations

Time (MDT) Temp. Windchill Dew Point Humidity Pressure Visibility Wind Dir Wind Speed Gust Speed Precip Events Conditions
12:52 AM 50.0 °F - 39.0 °F 66% 30.01 in 10.0 mi SSW 5.8 mph - N/A   Clear
1:52 AM 48.0 °F - 39.0 °F 71% 30.02 in 10.0 mi ENE 4.6 mph - N/A   Clear
2:52 AM 46.9 °F - 39.9 °F 77% 30.03 in 10.0 mi ESE 3.5 mph - N/A   Clear
3:52 AM 45.0 °F 41.2 °F 37.0 °F 74% 30.04 in 10.0 mi SSE 6.9 mph - N/A   Clear
4:52 AM 43.0 °F 40.3 °F 36.0 °F 76% 30.04 in 10.0 mi SSE 4.6 mph - N/A   Clear
5:52 AM 39.9 °F 35.8 °F 35.1 °F 83% 30.07 in 10.0 mi SE 5.8 mph - N/A   Clear
6:52 AM 43.0 °F - 36.0 °F 76% 30.09 in 10.0 mi Calm Calm - N/A   Clear
7:52 AM 51.1 °F - 37.0 °F 59% 30.10 in 10.0 mi SW 3.5 mph - N/A   Clear
8:52 AM 59.0 °F - 37.0 °F 44% 30.10 in 10.0 mi Variable 3.5 mph - N/A   Clear
9:52 AM 64.0 °F - 37.0 °F 37% 30.09 in 10.0 mi South 3.5 mph - N/A   Clear
10:52 AM 70.0 °F - 36.0 °F 29% 30.09 in 10.0 mi SE 3.5 mph - N/A   Clear
11:52 AM 73.9 °F - 34.0 °F 23% 30.08 in 10.0 mi Variable 3.5 mph - N/A   Clear
12:52 PM 78.1 °F - 34.0 °F 20% 30.05 in 10.0 mi ESE 8.1 mph - N/A   Clear
1:52 PM 80.1 °F - 30.9 °F 17% 30.04 in 10.0 mi East 8.1 mph - N/A   Clear
2:52 PM 80.1 °F - 27.0 °F 14% 30.02 in 10.0 mi WSW 8.1 mph - N/A   Partly Cloudy
3:52 PM 82.0 °F - 24.1 °F 12% 30.01 in 10.0 mi NW 9.2 mph 20.7 mph N/A   Clear
4:52 PM 81.0 °F - 28.0 °F 14% 30.01 in 10.0 mi NW 8.1 mph - N/A   Clear
5:52 PM 81.0 °F - 28.9 °F 15% 30.01 in 10.0 mi North 9.2 mph - N/A   Clear
6:52 PM 80.1 °F - 28.9 °F 15% 30.00 in 10.0 mi NNW 11.5 mph - N/A   Clear
7:52 PM 73.0 °F - 33.1 °F 23% 30.01 in 10.0 mi North 6.9 mph - N/A   Clear
8:52 PM 69.8 °F - 35.6 °F 28% 30.32 in 10.0 mi East 9.2 mph 23.0 mph N/A   Clear
9:52 PM 66.2 °F - 35.6 °F 32% 30.34 in 10.0 mi West 3.5 mph - N/A   Mostly Cloudy
10:52 PM 59.0 °F - 39.9 °F 49% 30.08 in 10.0 mi SSE 6.9 mph - N/A   Clear
11:52 PM 63.0 °F - 41.0 °F 45% 30.06 in 10.0 mi East 17.3 mph 23.0 mph N/A   Clear